Regional Weather Roundup
Issued by NWS

Home | Current Version | Previous Version | Text Only | Print | Product List | Glossary On
Versions: 1 2 3 4 5 6 7 8 9 10 11 12 13 14 15 16 17 18 19 20 21 22 23 24 25 26 27 28 29 30 31 32 33 34 35 36 37 38 39 40 41 42 43 44 45 46 47 48 49 50
000
ASUS43 KMPX 202210
RWRMN
WEATHER ROUNDUP FOR MINNESOTA
NATIONAL WEATHER SERVICE TWIN CITIES/CHANHASSEN MN
400 PM CST SAT DEC 20 2014


NOTE: "FAIR" INDICATES FEW OR NO CLOUDS BELOW 12,000 FEET WITH NO
SIGNIFICANT WEATHER AND/OR OBSTRUCTIONS TO VISIBILITY. N/A MEANS
CURRENT SKY AND/OR WEATHER CONDITIONS ARE NOT AVAILABLE.

MNZ060>063-068>070-202300-
   Twin Cities Metro

CITY           SKY/WX    TMP DP  RH WIND       PRES   REMARKS
TWIN CITIES    CLOUDY    32  27  81 S8        30.12S WCI  25
ST PAUL        CLOUDY    32  27  81 S6        30.14R WCI  26
CRYSTAL        CLOUDY    32  27  81 S7        30.11R HAZE    WCI  26
BLAINE         CLOUDY    34  30  86 S10       30.11R WCI  26
LAKEVILLE      CLOUDY    30  27  86 S6        30.11S WCI  24
EDEN PRAIRIE   CLOUDY    31  26  82 S7        30.10R WCI  24
SOUTH ST PAUL  CLOUDY    33  28  83 S5        30.12S WCI  28
LAKE ELMO      CLOUDY    32  30  93 S10       30.13S WCI  24
$$
MNZ001>005-007-008-013>017-022>024-027-028-202300-
   Northwest Minnesota

CITY           SKY/WX    TMP DP  RH WIND       PRES   REMARKS
BEMIDJI        CLOUDY    28  28  96 S9        29.99S FOG     WCI  20
HALLOCK        FOG       28  27  93 CALM      29.94R VSB 1/4
ROSEAU         CLOUDY    30  27  86 S8        29.96S HAZE    WCI  23
WARROAD        CLOUDY    30  27  86 S8        29.97S FOG     WCI  23
THIEF RVR FALL CLOUDY    30  28  93 S12G17    29.95S WCI  21
CROOKSTON      CLOUDY    30  28  93 S13       29.96S FOG     WCI  20
FOSSTON        CLOUDY    27  27 100 S10       29.97S FOG     WCI  17
DETROIT LAKES  CLOUDY    30  30 100 S14       29.98S FOG     WCI  20
MOORHEAD       CLOUDY    30  30 100 S14       29.98F FOG     WCI  20
PARK RAPIDS    CLOUDY    30  28  92 S13       29.99S FOG     WCI  20
MAHNOMEN       CLOUDY    29  28  95 S10       29.97S FOG     WCI  20
$$
MNZ006-009>011-018-025>026-202300-
   North Central Minnesota

CITY           SKY/WX    TMP DP  RH WIND       PRES   REMARKS
BAUDETTE       CLOUDY    30  27  88 S7        29.98R WCI  23
FLAG ISLAND    CLOUDY    28  27  93 S9        29.96S WCI  20
INTL FALLS     CLOUDY    30  28  92 CALM      30.00S FOG
WASKISH        CLOUDY    30  28  93 CALM      29.99S FOG
BIG FORK       MIX PCPN  30  28  93 S5        30.01S WCI  25
LONGVILLE      CLOUDY    28  28 100 S10       30.02S FOG     WCI  19
GRAND RAPIDS   CLOUDY    28  27  93 S8        30.03R WCI  20
CRANE LAKE     CLOUDY    28  27  93 CALM      30.06S FOG
ORR            CLOUDY    28  27  93 S6        30.00F FOG     WCI  22
COOK           CLOUDY    28  27  93 S7        30.04S FOG     WCI  21
WALKER         CLOUDY    29  28  94 S10       30.00S FOG     WCI  20
$$
MNZ012-019>021-037-202300-
   Northeast Minnesota

CITY           SKY/WX    TMP DP  RH WIND       PRES   REMARKS
DULUTH         CLOUDY    30  26  85 S8        30.06S FOG     WCI  22
ELY            CLOUDY    28  27  93 S6        30.06R WCI  22
HIBBING        CLOUDY    30  26  85 S7        30.04R FOG     WCI  23
EVELETH        CLOUDY    30  28  93 S7        30.06S FOG     WCI  23
DULUTH HARBOR  CLOUDY    34  28  80 CALM      30.12S
TWO HARBORS    CLOUDY    34  28  80 S3        30.08S
SILVER BAY     CLOUDY    30  28  93 S5        30.09R WCI  25
GRAND MARAIS     N/A     34  29  82 SW9       30.14R WCI  27
G MARAIS ARPRT CLOUDY    27  23  86 S3        30.08R FOG
$$
MNZ029>031-032-039>041-046>048-054>057-064-202300-
   West Central Minnesota

CITY           SKY/WX    TMP DP  RH WIND       PRES   REMARKS
FERGUS FALLS   CLOUDY    30  28  93 S14       30.02R FOG     WCI  20
WHEATON        CLOUDY    30  27  86 SE10      30.01S FOG     WCI  21
MORRIS         PTCLDY    32  30  93 S13       30.00R FOG     WCI  22
ALEXANDRIA     CLOUDY    30  27  88 S12       30.02R FOG     WCI  20
ELBOW LAKE     CLOUDY    31  29  94 S16       30.00R FOG     WCI  19
WADENA         CLOUDY    28  27  93 S8        30.00S FOG     WCI  20
GLENWOOD       CLOUDY    30  28  93 S12       30.02F FOG     WCI  21
APPLETON       CLOUDY    34  30  86 S8        30.02R FOG     WCI  27
BENSON         CLOUDY    32  28  86 S13       30.02F WCI  22
ORTONVILLE     CLOUDY    32  28  86 S12       30.00S FOG     WCI  23
MADISON        PTCLDY    36  34  93 S7        30.02R FOG
WILLMAR        CLOUDY    32  28  86 S5        30.06R FOG     WCI  27
$$
MNZ033>034-036-042>043-049>051-058-059-202300-
   Central Minnesota

CITY           SKY/WX    TMP DP  RH WIND       PRES   REMARKS
ST CLOUD       CLOUDY    32  26  78 S12       30.08R WCI  23
SAUK CENTRE    CLOUDY    30  28  92 S12       30.04S FOG     WCI  20
PAYNESVILLE    CLOUDY    28  27  94 SE8G16    30.06S WCI  20
AITKIN         CLOUDY    32  27  80 S7        30.05R WCI  26
PINE RIVER     CLOUDY    28  28 100 S7        30.06R FOG     WCI  21
BRAINERD       CLOUDY    29  26  89 S10       30.05R WCI  20
STAPLES        CLOUDY    28  27  93 S12       30.02S FOG     WCI  18
LONG PRAIRIE   CLOUDY    30  28  93 SE12      30.03F FOG     WCI  21
LITTLE FALLS   CLOUDY    30  27  86 S8        30.06S WCI  23
LITCHFIELD     CLOUDY    30  30 100 S6        30.07F WCI  24
BUFFALO        CLOUDY    30  26  84 S8        30.11S WCI  23
MAPLE LAKE     CLOUDY    31  28  90 S8        30.10S WCI  24
$$
MNZ037-044-045-052-053-202300-
   East Central Minnesota

CITY           SKY/WX    TMP DP  RH WIND       PRES   REMARKS
PRINCETON      CLOUDY    30  27  86 S9        30.10S WCI  22
MORA           CLOUDY    32  27  80 S12       30.11R WCI  23
CAMBRIDGE      CLOUDY    34  25  69 S6        30.09S WCI  29
RUSH CITY      CLOUDY    32  27  84 S6        30.11S WCI  26
MOOSE LAKE     CLOUDY    32  28  86 S9        30.07R FOG     WCI  24
HINCKLEY       CLOUDY    32  30  93 S13       30.10S WCI  22
CLOQUET        CLOUDY    30  27  86 S8        30.07S WCI  23
MCGREGOR       CLOUDY    30  30 100 S9        30.06S WCI  22
$$
MNZ071>073-080-081-089-090-097-098-202300-
   Southwest Minnesota

CITY           SKY/WX    TMP DP  RH WIND       PRES   REMARKS
MONTEVIDEO     CLOUDY    32  30  93 S7        30.04S WCI  26
GRANITE FALLS  CLOUDY    32  29  90 SE10      30.05F FOG     WCI  24
CANBY          CLOUDY    32  30  93 SW8       30.02S FOG     WCI  25
MARSHALL       CLOUDY    30  27  86 S10       30.03S WCI  21
REDWOOD FALLS  CLOUDY    32  28  85 S13       30.06R WCI  22
OLIVIA         CLOUDY    32  30  93 S10       30.06R WCI  24
PIPESTONE      FOG       28  28 100 S5        30.00S VSB 3/4 WCI  23
WINDOM         CLOUDY    30  28  93 SE9       30.05S WCI  22
WORTHINGTON    CLOUDY    30  28  93 S9        30.05R WCI  22
JACKSON        CLOUDY    32  30  93 S7        30.07R WCI  26
TRACY          CLOUDY    32  30  92 S10G20    30.03S FOG     WCI  23
SLAYTON        CLOUDY    30  30 100 S3        30.03S FOG
$$
MNZ065>067-074>077-082>085-091>093-202300-
   South Central Minnesota

CITY           SKY/WX    TMP DP  RH WIND       PRES   REMARKS
MANKATO        CLOUDY    30  25  80 S6        30.10S WCI  24
NEW ULM        CLOUDY    30  28  93 S10       30.09R WCI  21
ST JAMES       CLOUDY    34  28  80 S12       30.09S WCI  25
FAIRMONT       CLOUDY    30  27  86 S10       30.08S WCI  21
GLENCOE        CLOUDY    32  29  88 SE7       30.09S WCI  25
FARIBAULT      CLOUDY    30  27  86 S9        30.11F WCI  22
OWATONNA       CLOUDY    30  27  86 S5        30.11S WCI  25
WASECA         CLOUDY    32  30  93 S10G16    30.11F WCI  24
ALBERT LEA     CLOUDY    30  28  93 S7        30.11R WCI  23
$$
MNZ078>079-086>088-094>096-202300-
   Southeast Minnesota

CITY           SKY/WX    TMP DP  RH WIND       PRES   REMARKS
ROCHESTER      CLOUDY    30  27  88 S10       30.13R WCI  21
RED WING       CLOUDY    34  28  80 SE6       30.14S FOG     WCI  29
STANTON        CLOUDY    33  28  81 S8        30.11S WCI  26
DODGE CENTER   CLOUDY    30  28  93 S13       30.11R WCI  20
WINONA         CLOUDY    34  30  86 SE5       30.17S FOG     WCI  30
AUSTIN         CLOUDY    30  28  93 S6        30.12R FOG     WCI  24
PRESTON        CLOUDY    30  28  95 SE6       30.13S FOG     WCI  24
$$
ABBREVIATIONS USED IN REMARKS
   TC - TEMPERATURES IN CELSIUS
  WCI - WIND CHILL INDEX
   HX - HEAT INDEX
  VSB - VISIBILITY
$$



USA.gov is the U.S. government's official web portal to all federal, state and local government web resources and services.